Location: NCO
(38.4404°N, 77.1340°W)
Time: 10:35:44
(UTC-04:00)

ISS - Visible Passes

Search period start: 28 May 2017 00:00
Search period end: 07 June 2017 00:00
Orbit: 402 x 408 km, 51.6° (Epoch: 28 May)

Date Brightness Start Highest point End Pass type
(mag) Time Alt. Az. Time Alt. Az. Time Alt. Az.
28 May -0.7 01:56:41 10° NNW 01:57:37 15° N 01:57:37 15° N visible
28 May -0.6 21:49:27 10° WNW 21:51:31 15° NNW 21:53:36 10° NNE visible
29 May -0.5 01:05:03 10° NNW 01:06:25 14° N 01:06:25 14° N visible
29 May -1.0 20:56:35 10° W 20:59:15 22° NNW 21:01:55 10° NNE visible
30 May -0.5 00:13:37 10° N 00:14:30 11° NNE 00:15:23 10° NNE visible
30 May -0.4 21:43:27 10° NNW 21:44:18 11° NNW 21:45:09 10° N visible
31 May -0.6 00:56:52 10° NNW 00:57:35 14° NNW 00:57:35 14° NNW visible
01 Jun -0.9 00:05:09 10° NNW 00:07:01 16° NNE 00:07:01 16° NNE visible
01 Jun -0.7 23:13:34 10° N 23:14:52 12° NNE 23:16:10 10° NE visible
02 Jun -0.5 00:48:52 10° NW 00:49:08 12° NW 00:49:08 12° NW visible
02 Jun -1.2 23:56:58 10° NNW 23:58:38 21° N 23:58:38 21° N visible
03 Jun -1.4 23:05:10 10° NNW 23:07:30 18° NNE 23:08:11 17° NE visible
04 Jun -1.0 22:13:29 10° NNW 22:15:07 13° NNE 22:16:45 10° NE visible
04 Jun -1.4 23:48:56 10° NW 23:50:24 24° NW 23:50:24 24° NW visible
05 Jun -0.7 21:22:08 10° N 21:22:39 10° NNE 21:23:08 10° NNE visible
05 Jun -2.4 22:56:58 10° NW 22:59:58 31° NNE 23:00:00 31° NNE visible
06 Jun -1.6 22:05:06 10° NNW 22:07:38 20° NNE 22:09:38 13° ENE visible
06 Jun -1.4 23:41:06 10° WNW 23:42:16 20° WNW 23:42:16 20° WNW visible
